NJE393P LICC-LIBD

Flight info

Callsign NJE393P
Flight time N/A
Altitude 30000
Route BUDIN DCT SOBRI DCT KUTID DCT BUMOK
Aircraft CL60/M-SBDE1E2E3FGHIJ1J4J5J7M3RWXYZ/LB1V1D1

Departure

Time 2026-04-30 14:58
Airport Catania-Fontanarossa Airport (LICC)

Arrival

Time N/A
Airport Bari Karol Wojtyła International Airport (LIBD)
Time Latitude Longitude Altitude Speed Heading
2026-04-30 14:42 37.46933 15.07042 34 ft 0 kts 39°
2026-04-30 14:51 37.46935 15.07045 33 ft 3 kts 63°
2026-04-30 14:52 37.46905 15.07056 33 ft 7 kts 171°
2026-04-30 14:52 37.46865 15.06902 32 ft 15 kts 264°
2026-04-30 14:52 37.46850 15.06724 31 ft 23 kts 264°
2026-04-30 14:53 37.46823 15.06388 36 ft 18 kts 264°
2026-04-30 14:53 37.46808 15.06218 39 ft 20 kts 264°
2026-04-30 14:54 37.46777 15.05850 46 ft 21 kts 264°
2026-04-30 14:54 37.46738 15.05505 55 ft 15 kts 232°
2026-04-30 14:55 37.46678 15.05465 54 ft 0 kts 181°
2026-04-30 14:56 37.46674 15.05465 54 ft 1 kts 179°
2026-04-30 14:56 37.46645 15.05469 54 ft 0 kts 165°
2026-04-30 14:57 37.46594 15.05523 53 ft 13 kts 115°
2026-04-30 14:58 37.46695 15.06845 122 ft 153 kts 83°
2026-04-30 14:58 37.46820 15.08271 876 ft 175 kts 81°
2026-04-30 14:58 37.47279 15.11615 2438 ft 219 kts 80°
2026-04-30 14:59 37.47821 15.15568 3680 ft 232 kts 80°
2026-04-30 15:00 37.48815 15.21753 5567 ft 266 kts 63°
2026-04-30 15:00 37.51818 15.24239 6980 ft 275 kts 358°
2026-04-30 15:01 37.55662 15.23633 8440 ft 279 kts 350°
2026-04-30 15:01 37.57564 15.23306 9178 ft 280 kts 349°
2026-04-30 15:01 37.61492 15.22632 10633 ft 295 kts 349°
2026-04-30 15:02 37.63633 15.22262 11385 ft 318 kts 349°
2026-04-30 15:02 37.65861 15.21880 12100 ft 333 kts 349°
2026-04-30 15:03 37.72870 15.20696 14318 ft 340 kts 349°
2026-04-30 15:03 37.77609 15.19895 15787 ft 348 kts 349°
2026-04-30 15:04 37.82475 15.19074 17261 ft 355 kts 349°
2026-04-30 15:04 37.89986 15.17804 19481 ft 367 kts 349°
2026-04-30 15:05 37.97731 15.16493 21685 ft 379 kts 349°
2026-04-30 15:06 38.03033 15.15595 23186 ft 387 kts 349°
2026-04-30 15:06 38.08440 15.14679 24724 ft 392 kts 348°
2026-04-30 15:07 38.13928 15.13748 26163 ft 397 kts 348°
2026-04-30 15:07 38.19443 15.12811 27456 ft 401 kts 348°
2026-04-30 15:08 38.25057 15.11855 28563 ft 406 kts 347°
2026-04-30 15:08 38.33662 15.10384 29652 ft 423 kts 347°
2026-04-30 15:09 38.39620 15.09365 30024 ft 433 kts 347°
2026-04-30 15:10 38.51751 15.08296 30027 ft 437 kts 358°
2026-04-30 15:11 38.69980 15.09812 30032 ft 438 kts 358°
2026-04-30 15:13 38.85267 15.11076 30026 ft 438 kts 358°
2026-04-30 15:14 39.06717 15.12853 30029 ft 438 kts 358°
2026-04-30 15:17 39.34254 15.14560 30046 ft 438 kts 357°
2026-04-30 15:18 39.49509 15.15615 30290 ft 441 kts 357°
2026-04-30 15:19 39.58815 15.16529 30074 ft 442 kts